User: anonymous   Login
Location: Feydey
(46.3431°N, 7.0106°E)
Time: 10:44:30
(UTC+00:00)
Language:

Cosmos 1315 Rocket - Orbit

View from above orbital plane
View from above orbital plane
View from above satellite
View from above satellite

Ground track
Ground track

The orbit data is extracted from the following two-line orbital elements,

1 12904U 81103B   21265.69126934  .00000975  00000-0  64665-4 0  9997
2 12904  81.1743 294.5254 0027792 336.3756  23.6188 15.06089859727110
Epoch (UTC): 22 September 2021 16:35:25
Eccentricity: 0.0027792
inclination: 81.1743°
perigee height: 529 km
apogee height: 567 km
right ascension of ascending node: 294.5254°
argument of perigee: 336.3756°
revolutions per day: 15.06089859
mean anomaly at epoch: 23.6188°
orbit number at epoch: 72711

The dashed part of the orbit path shows where the satellite is in the earth's shadow,  

DLR